軌道要素
Epoch 2024 Oct. 17.0 TT = JDT 2460600.5
T 2024 Mar. 25.97455 TT Rudenko
q 4.2021461 (2000.0) P Q
z +0.0000789 Peri. 78.59977 +0.63693684 -0.17788835
+/-0.0000008 Node 72.52580 -0.30048121 -0.95334492
e 0.9996683 Incl. 128.14945 +0.70994542 -0.24390409
>From 918 observations 2022 Sept. 23-2024 Aug. 31, mean residual 0".6.
|